Temp
1 0 -0 -1 -1 -1 -1 -1 -1 -2 -2 -3 -3 -3 -3 -3 -3 -3 -4 -5 -5 -5 -6 -6 -6 -6 -7 -9 -9 -10 -10 -11 -10 -9 -11 -11 -11 -11 -12 -12 -12 -12 -12
1 -0 -1 -1 -1 -1 -1 -1 -2 -2 -3 -3 -3 -3 -3 -3 -3 -4 -4 -5 -5 -6 -6 -6 -6 -7 -8 -9 -10 -10 -11 -11 -12 -10 -11 -11 -12 -12 -12 -12 -12 -12 -12
0 -1 -1 -1 -1 -1 -1 -2 -2 -3 -3 -4 -4 -4 -4 -4 -4 -4 -5 -5 -6 -6 -6 -7 -7 -7 -9 -10 -10 -10 -11 -11 -12 -12 -10 -11 -11 -12 -12 -12 -11 -11 -11
0 -1 -1 -1 -1 -1 -2 -2 -3 -3 -4 -4 -4 -4 -4 -4 -5 -5 -6 -6 -6 -7 -7 -7 -7 -8 -9 -10 -10 -10 -10 -11 -11 -12 -11 -11 -11 -12 -12 -12 -10 -11 -10
0 -1 -1 -1 -1 -1 -2 -3 -3 -4 -4 -4 -4 -4 -4 -5 -5 -6 -6 -6 -7 -7 -7 -7 -8 -9 -10 -11 -11 -11 -11 -11 -12 -12 -12 -11 -12 -12 -12 -11 -11 -10 -9
-0 -0 -1 -1 -1 -2 -2 -3 -4 -4 -4 -4 -4 -5 -5 -6 -6 -6 -7 -7 -7 -7 -7 -7 -8 -9 -10 -11 -11 -12 -12 -12 -12 -12 -12 -12 -12 -12 -12 -12 -11 -10 -8
-0 -1 -1 -1 -2 -3 -3 -4 -4 -4 -5 -5 -5 -5 -6 -6 -6 -7 -7 -7 -7 -8 -8 -8 -8 -10 -11 -11 -11 -12 -12 -12 -13 -13 -12 -13 -12 -12 -12 -11 -11 -11 -9
-1 -1 -1 -2 -2 -3 -4 -4 -4 -4 -5 -5 -5 -6 -6 -7 -7 -7 -7 -7 -8 -8 -8 -8 -9 -10 -11 -11 -11 -11 -11 -11 -12 -12 -12 -12 -12 -12 -13 -13 -12 -11 -9
-1 -1 -1 -2 -3 -3 -4 -4 -4 -5 -6 -5 -6 -6 -7 -7 -7 -8 -8 -8 -8 -8 -8 -9 -10 -11 -11 -11 -11 -11 -11 -11 -11 -11 -12 -12 -12 -12 -13 -12 -12 -11 -8
-1 -2 -2 -3 -4 -4 -5 -5 -5 -6 -6 -6 -7 -7 -7 -8 -8 -8 -8 -8 -8 -8 -9 -9 -11 -11 -12 -12 -12 -11 -11 -11 -10 -10 -11 -12 -12 -12 -12 -12 -12 -11 -10
-2 -2 -3 -4 -5 -5 -5 -5 -6 -6 -6 -7 -7 -8 -8 -8 -8 -8 -9 -9 -9 -9 -9 -10 -11 -12 -12 -12 -12 -11 -11 -11 -10 -11 -11 -11 -11 -12 -12 -12 -12 -12 -10
-2 -3 -4 -5 -5 -5 -6 -6 -6 -7 -7 -8 -8 -8 -8 -9 -9 -9 -9 -9 -9 -10 -10 -11 -11 -11 -12 -12 -12 -11 -11 -11 -11 -11 -11 -11 -11 -11 -11 -11 -11 -11 -10
-3 -4 -5 -5 -6 -6 -6 -7 -7 -8 -8 -8 -9 -9 -9 -9 -9 -10 -10 -10 -10 -10 -10 -11 -11 -11 -11 -11 -12 -12 -12 -12 -12 -12 -11 -12 -11 -12 -11 -11 -10 -10 -10
-5 -5 -6 -6 -6 -7 -7 -7 -8 -9 -9 -9 -9 -10 -10 -10 -10 -10 -10 -10 -10 -10 -10 -11 -11 -12 -12 -12 -12 -13 -13 -12 -12 -12 -12 -12 -12 -12 -11 -11 -10 -9 -8
-6 -7 -7 -7 -7 -8 -8 -9 -9 -9 -9 -10 -10 -10 -10 -10 -10 -10 -10 -10 -10 -11 -11 -11 -12 -12 -12 -12 -12 -12 -13 -13 -12 -12 -12 -12 -12 -12 -11 -11 -10 -9 -9
-7 -7 -8 -8 -8 -8 -9 -9 -10 -10 -10 -10 -10 -10 -10 -10 -10 -11 -11 -11 -11 -11 -11 -11 -12 -12 -12 -13 -13 -13 -13 -13 -13 -12 -12 -12 -12 -12 -11 -11 -10 -10 -9
-9 -9 -9 -9 -9 -11 -10 -10 -10 -10 -11 -11 -11 -11 -11 -11 -11 -11 -12 -12 -12 -12 -12 -13 -13 -13 -13 -13 -13 -13 -13 -13 -13 -13 -13 -12 -12 -12 -11 -11 -10 -9 -9
-10 -10 -10 -11 -12 -11 -11 -11 -11 -11 -11 -11 -11 -11 -12 -12 -12 -12 -12 -12 -13 -13 -13 -13 -13 -13 -13 -14 -13 -13 -13 -13 -13 -13 -13 -12 -12 -12 -11 -11 -10 -9 -9
-11 -10 -12 -14 -13 -12 -12 -11 -11 -11 -12 -12 -12 -13 -13 -13 -13 -13 -13 -14 -13 -13 -13 -13 -13 -14 -14 -14 -14 -14 -14 -14 -13 -13 -13 -13 -13 -12 -12 -11 -10 -10 -9
-11 -12 -14 -15 -14 -13 -13 -13 -13 -13 -13 -14 -14 -14 -14 -14 -14 -14 -14 -13 -14 -14 -14 -14 -14 -14 -14 -15 -14 -14 -14 -14 -14 -13 -13 -13 -12 -12 -12 -11 -10 -10 -9
-13 -14 -16 -16 -15 -14 -14 -14 -14 -14 -14 -14 -14 -14 -14 -14 -14 -14 -14 -14 -14 -14 -14 -15 -15 -15 -15 -15 -15 -14 -14 -14 -14 -13 -13 -13 -13 -12 -12 -11 -10 -10 -10
-15 -16 -16 -16 -16 -15 -15 -15 -15 -15 -15 -15 -15 -15 -15 -15 -15 -15 -15 -15 -15 -15 -16 -16 -16 -16 -16 -15 -15 -15 -14 -14 -14 -14 -13 -13 -13 -12 -12 -11 -10 -10 -10
-16 -16 -17 -17 -16 -16 -16 -16 -16 -16 -16 -16 -16 -16 -17 -17 -16 -16 -16 -16 -16 -17 -17 -17 -17 -16 -16 -16 -16 -16 -15 -14 -14 -14 -13 -13 -13 -12 -12 -11 -11 -10 -10
-17 -18 -18 -17 -16 -17 -17 -17 -17 -17 -17 -17 -17 -17 -17 -18 -17 -17 -17 -17 -18 -18 -18 -18 -18 -17 -17 -17 -17 -16 -15 -15 -14 -14 -14 -13 -13 -12 -12 -12 -11 -10 -10
-18 -18 -18 -17 -17 -17 -17 -17 -17 -17 -18 -18 -18 -18 -18 -18 -18 -18 -18 -18 -18 -18 -18 -18 -18 -18 -18 -17 -17 -17 -16 -15 -15 -15 -14 -14 -13 -12 -12 -12 -11 -10 -10
-19 -18 -18 -18 -18 -18 -18 -18 -18 -18 -18 -19 -19 -19 -19 -19 -19 -19 -19 -19 -19 -19 -19 -19 -18 -18 -18 -18 -17 -17 -16 -15 -15 -15 -15 -14 -13 -13 -13 -12 -11 -11 -10
Height
3000 3004 3008 3010 3012 3015 3018 3021 3024 3026 3026 3026 3025 3023 3020 3017 3014 3011 3006 3001 2996 2991 2982 2975 2969 2961 2954 2947 2940 2933 2925 2916 2905 2901 2894 2888 2880 2872 2867 2862 2855 2850 2845
2994 2998 3001 3003 3006 3009 3012 3015 3017 3018 3019 3019 3018 3016 3013 3011 3008 3004 2999 2994 2990 2983 2975 2968 2961 2953 2946 2939 2933 2927 2919 2911 2902 2892 2888 2881 2875 2867 2858 2853 2849 2844 2838
2987 2990 2993 2996 2999 3002 3005 3008 3010 3012 3012 3012 3010 3009 3007 3004 3000 2996 2992 2988 2982 2975 2967 2961 2954 2946 2940 2933 2926 2919 2911 2904 2896 2887 2880 2875 2867 2860 2852 2847 2842 2836 2831
2979 2983 2986 2989 2992 2996 2999 3002 3005 3005 3005 3004 3003 3002 2999 2996 2993 2989 2985 2981 2974 2968 2961 2954 2947 2939 2932 2925 2918 2911 2904 2895 2888 2881 2873 2867 2861 2854 2846 2838 2833 2827 2823
2972 2976 2980 2983 2985 2989 2994 2996 2998 2998 2998 2998 2997 2995 2992 2989 2986 2982 2978 2973 2967 2961 2955 2947 2940 2932 2925 2917 2909 2903 2895 2887 2880 2873 2866 2860 2853 2847 2839 2833 2824 2818 2816
2966 2970 2973 2977 2981 2985 2988 2989 2991 2991 2991 2991 2990 2988 2985 2982 2979 2974 2970 2966 2960 2953 2947 2940 2933 2927 2920 2911 2905 2898 2891 2882 2874 2866 2860 2854 2847 2841 2835 2827 2818 2811 2804
2961 2964 2967 2971 2975 2978 2981 2983 2984 2984 2984 2984 2983 2980 2978 2975 2971 2967 2962 2958 2953 2947 2940 2933 2926 2919 2911 2903 2896 2891 2886 2880 2872 2862 2854 2850 2842 2837 2830 2821 2814 2808 2802
2956 2959 2962 2965 2969 2973 2975 2977 2977 2978 2979 2977 2975 2973 2970 2967 2964 2960 2956 2951 2947 2940 2934 2927 2919 2911 2904 2896 2888 2883 2877 2871 2863 2857 2850 2843 2837 2832 2824 2816 2809 2801 2799
2949 2952 2956 2959 2963 2965 2967 2969 2970 2971 2972 2969 2967 2966 2963 2960 2957 2954 2949 2946 2940 2935 2929 2922 2913 2905 2897 2888 2881 2874 2867 2862 2856 2851 2844 2837 2833 2827 2821 2812 2806 2798 2792
2943 2946 2949 2952 2954 2957 2959 2961 2963 2964 2964 2961 2960 2959 2956 2953 2951 2948 2943 2937 2933 2929 2924 2916 2907 2899 2892 2884 2875 2866 2857 2851 2846 2843 2837 2831 2827 2822 2818 2810 2803 2795 2788
2937 2939 2941 2944 2947 2950 2952 2954 2956 2957 2956 2955 2954 2952 2950 2948 2944 2941 2936 2930 2925 2921 2913 2904 2898 2892 2885 2876 2868 2859 2850 2842 2837 2832 2827 2824 2821 2817 2812 2807 2803 2795 2787
2929 2931 2933 2936 2939 2943 2946 2948 2949 2950 2949 2949 2947 2946 2944 2941 2938 2934 2931 2925 2920 2913 2906 2899 2892 2884 2876 2869 2861 2852 2845 2837 2831 2825 2820 2819 2815 2812 2809 2804 2800 2796 2789
2922 2924 2926 2929 2934 2938 2940 2942 2943 2943 2944 2943 2942 2941 2938 2935 2932 2928 2925 2920 2916 2908 2902 2895 2888 2880 2871 2863 2854 2846 2837 2830 2824 2820 2815 2814 2811 2808 2804 2800 2797 2791 2786
2915 2917 2921 2926 2929 2932 2934 2936 2937 2938 2938 2937 2937 2936 2934 2931 2928 2924 2920 2916 2910 2904 2899 2892 2884 2877 2868 2859 2850 2842 2834 2825 2820 2816 2813 2811 2808 2806 2802 2797 2793 2788 2784
2909 2914 2917 2921 2924 2926 2929 2931 2932 2932 2933 2933 2932 2931 2929 2927 2924 2919 2914 2909 2904 2898 2892 2886 2879 2871 2863 2854 2847 2837 2828 2822 2817 2813 2811 2809 2807 2804 2800 2796 2793 2788 2781
2906 2909 2912 2916 2918 2921 2924 2926 2927 2928 2928 2928 2927 2926 2924 2922 2918 2914 2909 2903 2899 2892 2887 2879 2872 2865 2857 2848 2840 2833 2826 2820 2815 2811 2809 2806 2805 2802 2798 2796 2792 2787 2782
2900 2903 2907 2910 2913 2916 2919 2921 2922 2922 2923 2923 2922 2920 2918 2916 2911 2908 2904 2899 2892 2887 2881 2875 2868 2861 2852 2844 2836 2829 2823 2818 2813 2809 2808 2806 2804 2802 2798 2796 2793 2789 2784
2895 2898 2901 2905 2909 2912 2914 2916 2917 2918 2919 2919 2917 2915 2911 2908 2905 2902 2899 2895 2890 2884 2877 2871 2865 2857 2849 2842 2834 2827 2821 2817 2812 2807 2807 2806 2804 2801 2798 2797 2794 2791 2787
2893 2895 2898 2902 2905 2908 2910 2912 2913 2913 2913 2912 2911 2909 2907 2903 2900 2896 2891 2888 2883 2878 2873 2868 2861 2854 2847 2839 2832 2825 2818 2815 2810 2806 2805 2805 2804 2802 2799 2798 2796 2795 2791
2889 2891 2894 2898 2902 2905 2907 2908 2909 2909 2908 2907 2906 2905 2903 2900 2896 2893 2888 2884 2878 2873 2868 2863 2857 2851 2844 2836 2830 2823 2817 2814 2810 2805 2805 2805 2804 2802 2800 2800 2798 2797 2795
2884 2888 2892 2896 2900 2901 2903 2904 2904 2904 2905 2904 2903 2900 2899 2895 2891 2888 2884 2879 2874 2869 2865 2860 2853 2847 2840 2833 2827 2821 2815 2812 2809 2805 2804 2805 2805 2803 2801 2801 2800 2800 2799
2883 2886 2891 2894 2897 2899 2900 2901 2901 2901 2901 2900 2899 2897 2894 2891 2888 2884 2880 2875 2871 2865 2859 2854 2849 2843 2837 2831 2824 2819 2814 2811 2808 2805 2803 2804 2805 2804 2803 2803 2802 2803 2803
2882 2885 2889 2892 2895 2896 2897 2897 2898 2898 2898 2897 2895 2893 2891 2888 2884 2880 2876 2871 2866 2861 2856 2850 2845 2840 2834 2828 2823 2816 2812 2809 2807 2804 2803 2803 2805 2805 2804 2804 2804 2805 2806
2881 2885 2889 2891 2892 2893 2894 2894 2894 2894 2894 2893 2891 2888 2886 2884 2880 2875 2871 2867 2862 2858 2853 2847 2841 2836 2830 2824 2819 2813 2809 2807 2805 2803 2801 2802 2804 2805 2804 2805 2806 2808 2810
2881 2884 2887 2889 2890 2890 2891 2891 2891 2890 2890 2889 2887 2885 2882 2879 2877 2871 2866 2863 2858 2854 2849 2844 2837 2832 2826 2821 2816 2810 2806 2804 2802 2801 2800 2801 2803 2804 2804 2806 2807 2809 2812
2879 2881 2883 2885 2886 2887 2888 2887 2887 2886 2885 2884 2883 2881 2877 2874 2871 2866 2862 2858 2854 2849 2844 2839 2834 2828 2823 2817 2811 2806 2803 2801 2800 2798 2798 2800 2802 2804 2805 2807 2809 2810 2813
Wind_Speed
28 27 28 29 31 33 32 31 30 29 28 29 28 28 31 33 34 35 35 37 38 42 45 46 46 48 47 45 45 45 45 46 49 47 45 38 35 35 33 32 34 35 35
29 29 30 30 31 31 31 29 28 28 28 28 27 29 31 33 34 35 35 37 39 42 43 45 46 48 46 45 44 44 44 43 46 48 45 39 33 32 35 35 32 31 32
31 32 31 31 31 31 30 29 28 27 27 26 27 29 32 32 33 34 34 36 39 41 43 45 46 47 45 44 43 43 43 43 42 44 44 41 36 33 35 33 31 30 29
32 33 32 31 31 32 31 29 27 26 26 26 27 30 31 32 33 33 34 36 38 40 42 44 45 46 45 44 43 42 43 45 44 44 44 43 37 34 35 36 32 31 28
33 33 32 33 34 33 30 26 25 25 25 26 29 30 31 32 32 32 33 35 38 39 41 43 44 44 43 43 43 43 44 46 45 45 45 43 41 37 38 36 36 34 28
30 31 33 34 34 31 28 25 24 25 26 28 30 30 30 30 31 32 34 35 38 40 41 43 44 42 40 41 41 41 42 44 45 44 46 45 43 40 39 38 38 37 32
29 31 32 33 33 30 27 24 24 26 28 29 30 29 29 29 29 31 34 36 38 39 40 43 44 42 41 42 42 41 39 38 38 41 42 41 41 39 39 37 37 39 35
27 28 31 33 33 30 28 26 26 30 30 29 27 26 28 28 29 31 33 35 36 38 40 42 43 42 40 41 43 43 41 37 37 39 39 39 37 37 38 41 40 41 32
26 26 29 32 33 34 32 30 30 29 28 26 24 25 27 27 29 31 34 35 35 36 39 40 40 40 40 42 44 46 45 40 38 38 37 35 33 33 35 39 39 39 34
25 26 29 33 37 37 34 32 27 26 26 24 23 24 25 27 29 31 34 35 35 36 37 37 37 39 38 39 42 44 47 45 42 37 30 29 27 30 30 34 36 38 38
25 27 30 34 37 36 35 26 24 25 23 21 22 23 24 26 29 31 32 34 36 37 39 40 40 39 39 41 42 43 45 46 43 35 29 24 23 26 28 28 30 33 35
28 29 30 32 36 36 26 22 24 22 19 20 21 22 24 26 28 30 31 33 35 37 38 39 41 41 42 43 43 43 43 39 35 30 26 21 23 23 25 25 26 26 28
29 29 32 35 33 25 22 22 21 19 18 19 19 21 24 26 28 29 31 32 33 35 36 38 40 41 42 44 44 44 42 36 30 25 22 19 21 23 23 25 24 25 23
30 31 31 29 25 22 21 20 17 17 17 17 18 21 23 25 26 27 29 30 31 33 35 37 38 40 41 42 42 40 35 32 28 22 19 17 19 20 21 23 23 23 20
29 28 29 26 22 20 19 17 16 15 15 16 18 20 22 23 25 26 29 30 32 33 35 37 38 40 41 40 38 35 32 29 25 21 18 16 17 19 19 21 21 21 22
28 30 26 23 20 18 16 15 14 13 14 16 17 20 21 22 22 24 27 30 32 34 35 38 40 40 40 40 39 34 29 26 24 19 16 16 16 17 17 17 19 19 22
30 26 24 22 18 15 14 13 12 12 14 15 17 19 20 21 22 24 26 28 32 33 34 35 38 39 40 39 37 34 29 25 22 18 14 14 15 16 17 16 16 15 20
28 27 23 19 15 13 12 11 11 12 14 15 17 17 19 21 23 25 27 27 27 29 33 35 36 38 39 38 36 32 27 23 21 17 13 12 12 14 15 14 13 12 19
25 22 18 15 11 9 9 10 11 12 13 15 15 17 19 21 24 26 28 29 29 30 32 33 35 37 38 37 34 31 26 23 19 16 12 10 10 11 13 11 10 8 16
25 22 18 13 9 9 9 9 10 10 11 12 14 16 17 19 20 23 25 27 29 31 33 33 34 35 37 37 34 29 24 21 18 16 11 9 9 9 11 9 7 5 13
21 17 13 11 10 8 8 9 8 9 10 13 15 17 18 20 22 23 25 27 30 31 33 33 35 36 37 36 33 28 23 19 17 15 11 9 8 8 9 7 5 2 9
18 16 13 10 7 8 8 7 7 9 11 13 15 16 18 20 22 23 25 27 29 31 33 34 34 36 37 36 33 29 21 18 16 14 10 9 8 8 8 6 4 2 4
15 13 10 8 8 7 6 6 7 9 11 13 15 16 18 20 22 24 26 27 29 30 31 32 33 34 34 33 32 28 22 16 15 14 11 9 9 9 8 5 5 7 3
13 10 8 7 6 6 6 7 9 10 12 14 16 18 19 22 23 25 27 28 29 29 30 31 32 33 34 32 30 27 21 16 14 13 11 10 10 10 9 7 8 10 9
11 9 7 7 6 6 7 8 10 12 14 15 17 19 21 23 25 26 27 28 29 28 28 30 31 32 33 30 29 25 21 15 13 12 10 10 12 12 11 9 11 13 13
9 9 7 7 7 8 9 10 12 13 15 16 19 21 22 24 26 27 27 27 27 27 29 29 29 31 32 29 27 23 19 13 11 11 9 10 13 15 13 11 13 15 16
Wind_Direction
215 223 231 234 234 231 233 240 248 258 268 276 281 289 298 302 304 306 309 310 314 318 320 320 320 319 319 318 314 315 316 315 316 321 326 324 317 307 304 300 301 300 299
217 224 231 235 234 232 233 239 248 258 267 275 281 291 297 299 303 305 308 311 315 319 319 319 320 319 318 316 314 314 314 315 315 316 321 324 317 311 308 309 309 304 298
217 224 230 234 231 230 233 238 248 258 267 274 281 292 295 299 303 304 309 312 316 319 320 319 319 317 316 313 312 314 316 314 314 313 316 323 319 315 310 312 309 309 304
219 225 231 232 230 229 233 239 250 260 268 273 283 291 295 299 302 306 309 313 318 319 319 317 317 316 316 313 313 314 316 317 317 317 317 319 321 321 317 318 311 312 306
220 226 231 230 228 229 231 240 252 263 268 275 284 291 294 298 303 306 310 315 318 318 317 317 317 317 315 314 316 318 318 317 317 316 315 316 323 322 319 320 316 313 313
226 229 230 229 229 228 232 244 255 263 269 276 286 290 294 298 304 307 312 317 317 317 317 317 317 317 315 313 314 316 316 315 315 315 313 312 315 320 318 317 316 317 313
228 231 231 230 229 227 234 245 256 267 269 275 284 289 294 300 304 309 314 316 317 316 318 319 318 318 317 317 316 314 311 310 310 309 307 306 307 315 314 314 320 319 327
234 235 235 234 231 229 236 247 261 265 272 280 284 289 294 300 305 309 313 315 316 318 321 319 318 320 320 316 315 314 315 316 313 306 302 302 306 313 316 316 318 319 330
236 237 237 237 231 231 236 250 261 270 277 282 284 289 295 301 306 310 312 314 316 320 321 319 320 320 321 320 318 316 316 318 312 306 301 299 303 305 310 311 315 320 328
238 238 239 236 231 231 238 251 264 274 279 279 283 289 296 302 307 311 312 316 319 320 319 322 324 322 321 320 318 318 317 317 314 307 296 293 296 299 305 307 315 320 325
237 240 239 236 233 234 246 256 268 274 274 277 283 291 297 302 307 311 315 318 318 320 325 328 325 324 324 325 323 320 317 316 313 308 300 295 292 300 307 308 314 317 322
240 241 241 236 232 238 247 261 267 267 270 276 285 293 298 303 308 312 316 316 318 323 328 327 325 327 328 325 324 322 318 316 310 308 299 296 296 306 309 309 314 316 319
244 239 233 230 232 239 252 259 262 263 269 278 287 294 301 305 309 312 314 316 319 323 327 328 327 328 326 326 327 325 322 323 318 310 299 300 302 314 314 314 318 318 321
238 233 230 227 233 242 250 254 253 258 268 278 287 293 296 302 305 308 310 313 319 322 326 329 329 329 331 328 325 322 323 325 320 312 301 301 305 315 316 316 320 321 319
232 226 224 228 233 240 243 242 247 258 269 279 286 291 295 299 303 307 313 319 322 326 329 331 333 332 330 329 328 327 328 326 321 311 302 303 308 317 317 319 323 326 331
223 220 220 222 226 229 230 240 251 261 272 280 285 290 295 299 306 314 319 322 325 327 330 334 334 332 333 333 332 333 331 325 319 310 300 304 312 319 317 324 328 328 338
213 212 214 217 212 215 228 242 254 266 276 284 290 295 299 306 314 319 322 325 325 330 333 333 333 333 337 336 334 333 331 325 317 308 299 301 313 321 317 329 330 331 344
211 208 202 199 202 212 229 246 259 269 277 283 290 299 307 314 318 321 323 325 329 327 330 331 333 336 338 337 335 332 330 324 315 307 299 299 312 319 316 331 330 334 352
209 200 190 191 205 216 235 251 265 276 288 297 302 309 315 317 319 321 327 326 326 330 332 333 335 337 337 338 336 333 331 325 317 308 298 294 308 312 316 330 327 334 358
210 196 184 186 202 222 238 253 264 275 287 299 306 309 311 313 315 316 318 323 328 330 331 332 334 335 336 338 336 333 331 324 315 309 298 286 297 304 311 320 316 328 2
187 173 166 184 205 223 242 256 273 289 298 301 303 306 310 314 318 320 322 325 326 326 328 330 334 336 335 336 335 333 328 323 316 311 299 275 280 285 301 307 299 315 8
171 168 179 189 208 228 243 259 278 290 295 299 305 310 315 318 320 322 324 326 327 328 330 330 333 334 334 333 333 331 324 319 312 308 297 266 260 264 282 284 263 193 22
166 169 171 190 214 227 241 262 278 287 295 301 308 313 316 317 319 322 324 326 327 328 329 328 330 331 331 330 330 328 320 313 306 300 291 260 242 243 260 253 225 184 158
160 160 181 204 219 238 255 270 282 292 301 307 310 313 316 318 320 322 324 325 327 329 328 327 328 331 331 329 328 326 318 307 300 294 281 255 228 226 241 231 210 186 178
161 171 195 215 234 251 265 278 289 297 302 307 311 313 316 318 319 321 322 324 326 327 328 328 328 331 332 328 326 323 316 301 294 288 271 244 216 213 225 220 205 189 182
174 191 207 226 245 261 275 285 292 298 303 308 310 313 314 316 318 321 322 322 325 327 329 330 329 332 331 327 325 322 315 294 283 281 266 232 210 207 213 214 200 189 182